Location: Gollag?dem
(17.0207°N, 80.7261°E)
Time: 12:00:00
(UTC+00:00)

SL-16 R/B - Pass Details

Date: 03 August 2024
Orbit: 841 x 847 km, 71.0° (Epoch: 11 September)

Event Time Altitude Azimuth Distance (km) Brightness Sun altitude
Exits shadow 23:18:14 11° 206° (SSW) 2,385 4.1 -14.2°
Maximum altitude 23:23:38 65° 287° (WNW) 924 2.2 -13.0°
Drops below altitude 10° 23:29:15 10° 9° (N) 2,465 5.1 -11.7°
Sets 23:31:43 0° 12° (NNE) 3,402 5.9 -11.2°
